Location: Unspecified
(43.4354°N, 0.0000°E)
Time: 13:33:43
(UTC+00:00)

Vanguard 1 Rocket - Pass Details

Date: 16 June 2019
Orbit: 652 x 4224 km, 34.3° (Epoch: 24 August)

Event Time Altitude Azimuth Distance (km) Brightness Sun altitude
Rises 22:21:28 0° 265° (W) 4,378 11.1 -19.4°
Reaches altitude 10° 22:25:21 10° 255° (WSW) 2,926 10.1 -19.7°
Enters shadow 22:30:28 28° 203° (SSW) 1,496 8.1 -20.1°
